Weather History for Northeast Philadelphia, PA

Change the Weather History Date:

Friday, February 1, 2013

  Actual Average Record
Temperature  
Mean Temperature 26 °F -  
Max Temperature 30 °F 38 °F 64 °F (2002)
Min Temperature 21 °F 24 °F 15 °F (2005)
Degree Days  
Heating Degree Days 40    
Moisture  
Dew Point 9 °F    
Average Humidity 48    
Maximum Humidity 80    
Minimum Humidity 33    
Precipitation  
Precipitation 0.00 in - - ()
Sea Level Pressure  
Sea Level Pressure 30.02 in    
Wind  
Wind Speed 13 mph (WNW)    
Max Wind Speed 23 mph    
Max Gust Speed 34 mph    
Visibility 9 miles    
Events Snow    
Averages and records for this station are not official NWS values.
T = Trace of Precipitation, MM = Missing Value Source: NWS Daily Summary

Daily Weather History Graph

Daily Weather History Graph

Search for Another Location

Airport:

Trip Planner

Search our weather history database for the weather conditions in past years. The results will help you decide how hot, cold, wet, or windy it might be!

Date:

Astronomy

Feb. 01, 2013 Rise Set
Actual Time 7:08 AM EST 5:19 PM EST
Civil Twilight 6:39 AM EST 5:48 PM EST
Nautical Twilight 6:07 AM EST 6:20 PM EST
Astronomical Twilight 5:35 AM EST 6:52 PM EST
Moon 11:24 PM EST (2/1) 9:40 AM EST (2/1)
Length of Visible Light 11h 08m
Length of Day
10h 10m
Waning Gibbous, 70% of the Moon is Illuminated
Feb 1
Waning Gibbous
Feb 3
Last Quarter
Feb 10
New
Feb 17
First Quarter
Feb 25
Full

Hourly Weather History & Observations

Time (EST) Temp. Windchill Dew Point Humidity Pressure Visibility Wind Dir Wind Speed Gust Speed Precip Events Conditions
12:54 AM 28.9 °F 17.7 °F 9.0 °F 43% 29.88 in 10.0 mi WSW 15.0 mph - N/A   Partly Cloudy
1:54 AM 28.0 °F 20.0 °F 9.0 °F 45% 29.86 in 10.0 mi SW 8.1 mph 16.1 mph N/A   Clear
2:54 AM 28.4 °F 19.7 °F 10.4 °F 47% 29.87 in 10.0 mi SW 9.2 mph - N/A   Clear
3:54 AM 28.4 °F 19.1 °F 10.4 °F 47% 29.87 in 10.0 mi WSW 10.4 mph - N/A   Clear
4:54 AM 28.4 °F 19.7 °F 12.2 °F 51% 29.86 in 10.0 mi WSW 9.2 mph - N/A   Overcast
5:54 AM 30.0 °F 25.2 °F 12.0 °F 47% 29.87 in 10.0 mi West 4.6 mph - N/A   Overcast
6:54 AM 30.0 °F - 12.9 °F 49% 29.87 in 10.0 mi Calm Calm - N/A   Overcast
7:54 AM 30.2 °F 21.9 °F 14.0 °F 51% 29.89 in 10.0 mi West 9.2 mph - N/A   Overcast
8:54 AM 30.0 °F 20.0 °F 14.0 °F 51% 29.91 in 10.0 mi West 12.7 mph - N/A   Overcast
9:52 AM 26.6 °F 12.4 °F 17.6 °F 69% 29.94 in 1.5 mi NW 21.9 mph 29.9 mph 0.00 in Snow Light Snow
9:54 AM 26.1 °F 11.3 °F 19.0 °F 75% 29.95 in 0.8 mi NNW 23.0 mph 29.9 mph 0.00 in Snow Light Snow
10:13 AM 24.8 °F 14.0 °F 19.4 °F 80% 29.95 in 2.0 mi NW 11.5 mph - 0.00 in Snow Light Snow
10:21 AM 26.6 °F 16.8 °F 17.6 °F 69% 29.95 in 6.0 mi WNW 10.4 mph - N/A Snow Light Snow
10:32 AM 26.6 °F 16.8 °F 15.8 °F 64% 29.95 in 10.0 mi NW 10.4 mph - 0.00 in   Overcast
10:54 AM 28.4 °F 15.1 °F 8.6 °F 43% 29.95 in 10.0 mi NW 20.7 mph 28.8 mph N/A   Overcast
11:54 AM 28.9 °F 16.1 °F 6.1 °F 38% 29.97 in 10.0 mi NW 19.6 mph 26.5 mph N/A   Mostly Cloudy
12:54 PM 30.0 °F 20.0 °F 7.0 °F 38% 29.99 in 10.0 mi NW 12.7 mph 21.9 mph N/A   Overcast
1:54 PM 30.0 °F 19.5 °F 6.1 °F 36% 30.01 in 10.0 mi WNW 13.8 mph 27.6 mph N/A   Scattered Clouds
2:54 PM 28.4 °F 15.1 °F 3.2 °F 34% 30.03 in 10.0 mi WNW 20.7 mph 29.9 mph N/A   Mostly Cloudy
3:54 PM 28.9 °F 17.3 °F 3.0 °F 33% 30.08 in 10.0 mi WNW 16.1 mph 34.5 mph N/A   Overcast
4:54 PM 28.0 °F 16.5 °F 3.9 °F 36% 30.12 in 10.0 mi WNW 15.0 mph 29.9 mph N/A   Scattered Clouds
5:54 PM 26.1 °F 13.6 °F 5.0 °F 41% 30.15 in 10.0 mi WNW 16.1 mph 25.3 mph N/A   Clear
6:54 PM 25.0 °F 12.6 °F 3.9 °F 41% 30.19 in 10.0 mi WNW 15.0 mph 27.6 mph N/A   Clear
7:54 PM 25.0 °F 13.1 °F 3.9 °F 41% 30.22 in 10.0 mi WNW 13.8 mph 25.3 mph N/A   Clear
8:54 PM 24.1 °F 11.0 °F 3.9 °F 42% 30.25 in 10.0 mi WNW 16.1 mph 21.9 mph N/A   Clear
9:54 PM 23.0 °F 10.1 °F 3.9 °F 44% 30.28 in 10.0 mi WNW 15.0 mph 23.0 mph N/A   Clear
10:54 PM 21.9 °F 10.4 °F 3.9 °F 46% 30.30 in 10.0 mi WNW 11.5 mph - N/A   Clear
11:54 PM 21.0 °F 9.9 °F 3.9 °F 48% 30.31 in 10.0 mi WNW 10.4 mph 20.7 mph N/A   Clear